Orbital Elements at Epoch 2459000.5 (2020-May-31.0) TDB
Reference: JPL 25 (heliocentric ecliptic J2000)
Element | Value | Uncertainty (1-sigma) | Units |
e | .2241715383418764 | 4.6732e-08 | |
a | 2.68462550965915 | 1.7378e-08 | au |
q | 2.082808879287015 | 1.2411e-07 | au |
i | 14.16846865917031 | 5.7039e-06 | deg |
node | 56.74674164175826 | 1.8906e-05 | deg |
peri | 36.22411888393136 | 2.2221e-05 | deg |
M | 195.8253041500081 | 1.4299e-05 | deg |
tp | 2459733.202570882134 (2022-Jun-02.70257088) | 6.8201e-05 | TDB |
period | 1606.660052890127 4.40 | 1.56e-05 4.271e-08 | d yr |
n | .2240673124052702 | 2.1756e-09 | deg/d |
Q | 3.286442140031285 | 2.1274e-08 | au |
|
| | Orbit Determination Parameters
Additional Information
|